{"data":{"norad_id":57126,"intl_designator":"2023-090AB","name":"STARLINK-6167","alt_names":[],"object_type":"PAYLOAD","status":"ACTIVE","operator":null,"country":"US","launch_date":"2023-06-23","launch_site_code":"AFETR","launch_vehicle":null,"mission":null,"orbit_class":"UNKNOWN","rcs_meters":null,"size_class":null,"mass_kg":null,"dimensions":null,"purposes":["comms"],"wikipedia_slug":null,"has_3d_model":false,"image_url":null,"decayed_at":null,"tle_current":{"epoch":"2026-05-24T21:43:01.682112Z","epoch_age_seconds":83592,"freshness":"FRESH","line1":"1 57126U 23090AB  26144.90488058  .00000570  00000+0  30235-4 0  9992","line2":"2 57126  43.0006 211.5393 0001710 301.8243  58.2442 15.27578131161980","mean_motion":15.27578131,"eccentricity":0.000171,"inclination_deg":43.0006,"raan_deg":211.5393,"arg_perigee_deg":301.8243,"mean_anomaly_deg":58.2442,"bstar":3.0235e-5,"rev_number":16198,"period_min":94.266864049522,"perigee_km":481.88142872431,"apogee_km":484.22795628315,"semimajor_km":6861.1916925037,"source":"CELESTRAK","updated_at":"2026-05-25T13:38:18.244413Z"}}}